sat.trackr.live / text

‹ back to catalog

STARLINK-36193

NORAD 67099 · 2025-298AA

PAYLOAD ACTIVE UNKNOWN

§ Identity

Operator
Country
US
Launch date
2025-12-14
Launch site
AFWTR
Launch vehicle
Mass (kg)
RCS (m²)

Purposes: comms

External: N2YO · Heavens-Above · Gunter

§ Orbital elements

Epoch: 2026-05-25T03:37:30.396000Z

Period
96.11 min
Inclination
70.0013°
Eccentricity
0.0003696
Mean motion
14.98323283 rev/d
Perigee alt
569.5 km
Apogee alt
574.6 km
Semi-major
6,950.2 km
B*
3.2849e-4
RAAN
181.5565°
Arg perigee
270.4940°
Mean anomaly
89.5796°
Rev number
2,467

§ Raw data

STARLINK-361931 67099U 25298AA  26145.15104625  .00003828  00000+0  32849-3 0  99982 67099  70.0013 181.5565 0003696 270.4940  89.5796 14.98323283 24671

JSON: /api/v1/satellites/67099 · /tle

For live sub-satellite position, see the globe view (requires WebGL).

§ Visibility from observer

Set your observer location to see the next 7 days of passes ≥ 10°. The values pass through the URL so the page stays shareable.

No JS? Fill the form by hand. The geolocation button needs JavaScript.